Starlink 2164

operational
NORAD ID: 47750 Int'l Des: 2021-017 Owner: SPXS Country: US Constellation: starlink
LEOCIRCULARSTARLINK_TYPE

Starlink 2164について

説明を読み込み中...

リアルタイム位置

3D地球を読み込み中...

次回通過

高度履歴

Altitude vs Time

uPlot chart will show altitude changes over time

軌道要素

1 47750U 21017AE 26035.33336806 .00065981 00000-0 22244-2 0 9997
2 47750 53.1600 348.4579 0001935 87.8333 354.9698 15.30138518 5396
Epoch: Feb 4, 2026 • Age: 23 hours

現在のステータス

高度 494.2 km
速度 7.62 km/s
衛星直下点 -51.65°S, 1.66°W
打ち上げ日 Mar 4, 2021
運用期間 4.9 years
タイプ internet

技術仕様

分類 Payload
質量 260.00 kg
乾燥質量 248.00 kg
総質量 260.00 kg
長さ 0.20 m
直径 2.80 m
スパン 9.00 m
形状 Box + pan
製造者 SPXS
バスタイプ Starlink
フェーズステータス In Orbit
所有者/国 SPXS/US

大規模コンステレーション

Loading constellations...